RTW105 OING-LGAV

Flight info

Callsign RTW105
Flight time 3h 48m
Altitude 34000
Route IMPIR A414 DNZ A416 NSH Y7 BONAM/N0452F360 UT366 VAN UG81 EZS UG8 GEM UT243 HAY UR32 LASON
Aircraft B739/M-SDE2E3FGHIRWXY/LB1

Departure

Time 2026-04-20 01:28
Airport Gorgan Airport (OING)

Arrival

Time 2026-04-20 05:17
Airport Athens Eleftherios Venizelos International Airport (LGAV)
Time Latitude Longitude Altitude Speed Heading
2026-04-20 01:28 37.01074 54.32018 4267 ft 246 kts 34°
2026-04-20 01:28 37.02257 54.33509 4999 ft 242 kts 62°
2026-04-20 01:28 37.02748 54.35482 5710 ft 237 kts 89°
2026-04-20 01:28 37.02474 54.37446 6405 ft 231 kts 117°
2026-04-20 01:29 37.01522 54.39056 6893 ft 234 kts 143°
2026-04-20 01:29 37.00073 54.39961 7383 ft 237 kts 169°
2026-04-20 01:29 36.98409 54.40019 7771 ft 245 kts 193°
2026-04-20 01:29 36.96743 54.39404 8181 ft 256 kts 201°
2026-04-20 01:30 36.95028 54.38618 8573 ft 269 kts 202°
2026-04-20 01:30 36.93230 54.37785 8981 ft 282 kts 202°
2026-04-20 01:30 36.91487 54.36589 9351 ft 291 kts 224°
2026-04-20 01:30 36.90299 54.34519 9757 ft 300 kts 249°
2026-04-20 01:31 36.89936 54.31925 10127 ft 311 kts 274°
2026-04-20 01:31 36.90323 54.29225 10515 ft 321 kts 274°
2026-04-20 01:31 36.90042 54.26434 10890 ft 330 kts 253°
2026-04-20 01:31 36.89325 54.23659 11270 ft 340 kts 252°
2026-04-20 01:32 36.88590 54.20807 11657 ft 349 kts 252°
2026-04-20 01:32 36.87866 54.17873 12039 ft 357 kts 253°
2026-04-20 01:32 36.87163 54.14907 12430 ft 364 kts 254°
2026-04-20 01:32 36.86455 54.11839 12810 ft 371 kts 254°
2026-04-20 01:33 36.85744 54.08711 13202 ft 376 kts 254°
2026-04-20 01:33 36.85029 54.05550 13598 ft 381 kts 254°
2026-04-20 01:33 36.84304 54.02346 13957 ft 385 kts 254°
2026-04-20 01:33 36.83569 53.99115 14319 ft 388 kts 254°
2026-04-20 01:34 36.82828 53.95874 14672 ft 389 kts 254°
2026-04-20 01:34 36.82077 53.92632 15035 ft 390 kts 254°
2026-04-20 01:34 36.81322 53.89383 15401 ft 390 kts 254°
2026-04-20 01:34 36.80567 53.86129 15766 ft 390 kts 254°
2026-04-20 01:35 36.79810 53.82873 16140 ft 391 kts 254°
2026-04-20 01:35 36.79052 53.79617 16523 ft 391 kts 253°
2026-04-20 01:35 36.78292 53.76351 16908 ft 393 kts 253°
2026-04-20 01:35 36.77526 53.73068 17294 ft 394 kts 253°
2026-04-20 01:36 36.76767 53.69819 17690 ft 396 kts 253°
2026-04-20 01:36 36.75997 53.66521 18090 ft 397 kts 253°
2026-04-20 01:36 36.75223 53.63208 18432 ft 398 kts 253°
2026-04-20 01:36 36.74447 53.59887 18786 ft 399 kts 253°
2026-04-20 01:37 36.73668 53.56557 19143 ft 400 kts 253°
2026-04-20 01:37 36.72888 53.53225 19500 ft 401 kts 253°
2026-04-20 01:37 36.72104 53.49880 19860 ft 401 kts 253°
2026-04-20 01:37 36.71320 53.46540 20235 ft 402 kts 253°
2026-04-20 01:38 36.70535 53.43201 20599 ft 402 kts 253°
2026-04-20 01:38 36.69746 53.39850 20967 ft 402 kts 253°
2026-04-20 01:38 36.68958 53.36503 21340 ft 403 kts 253°
2026-04-20 01:38 36.68169 53.33155 21732 ft 402 kts 253°
2026-04-20 01:39 36.67389 53.29851 22114 ft 402 kts 253°
2026-04-20 01:39 36.66599 53.26505 22506 ft 402 kts 253°
2026-04-20 01:39 36.65807 53.23166 22912 ft 402 kts 253°
2026-04-20 01:39 36.65034 53.19829 23305 ft 401 kts 256°
2026-04-20 01:40 36.64729 53.16370 23639 ft 403 kts 269°
2026-04-20 01:40 36.64822 53.12887 24003 ft 402 kts 269°
2026-04-20 01:40 36.64897 53.09395 24347 ft 402 kts 269°
2026-04-20 01:40 36.64954 53.05967 24691 ft 401 kts 269°
2026-04-20 01:41 36.65003 53.02500 25049 ft 400 kts 268°
2026-04-20 01:41 36.65048 52.99030 25405 ft 400 kts 268°
2026-04-20 01:41 36.65090 52.95567 25767 ft 399 kts 268°
2026-04-20 01:41 36.65130 52.92118 26142 ft 397 kts 268°
2026-04-20 01:42 36.65169 52.88682 26510 ft 396 kts 268°
2026-04-20 01:42 36.65208 52.85256 26884 ft 395 kts 268°
2026-04-20 01:42 36.65246 52.81833 27272 ft 394 kts 268°
2026-04-20 01:42 36.65286 52.78472 27650 ft 392 kts 268°
2026-04-20 01:43 36.65326 52.75084 28048 ft 391 kts 268°
2026-04-20 01:43 36.65362 52.71702 28442 ft 389 kts 268°
2026-04-20 01:43 36.65396 52.68334 28855 ft 387 kts 268°
2026-04-20 01:43 36.65427 52.64993 29265 ft 385 kts 268°
2026-04-20 01:44 36.65458 52.61667 29681 ft 383 kts 268°
2026-04-20 01:44 36.65488 52.58351 30066 ft 381 kts 268°
2026-04-20 01:44 36.65519 52.55057 30416 ft 379 kts 268°
2026-04-20 01:44 36.65554 52.51783 30774 ft 377 kts 268°
2026-04-20 01:45 36.65590 52.48525 31132 ft 375 kts 268°
2026-04-20 01:45 36.65626 52.45286 31501 ft 373 kts 268°
2026-04-20 01:45 36.65661 52.42110 31870 ft 370 kts 268°
2026-04-20 01:45 36.65694 52.38914 32255 ft 367 kts 268°
2026-04-20 01:46 36.65726 52.35746 32629 ft 365 kts 268°
2026-04-20 01:46 36.65757 52.32595 33016 ft 361 kts 268°
2026-04-20 01:46 36.65787 52.29484 33406 ft 358 kts 267°
2026-04-20 01:46 36.65815 52.26399 33783 ft 355 kts 267°
2026-04-20 01:47 36.65859 52.21253 33823 ft 360 kts 267°
2026-04-20 01:47 36.65910 52.14962 33836 ft 366 kts 268°
2026-04-20 01:48 36.65959 52.08581 33837 ft 371 kts 268°
2026-04-20 01:48 36.66007 52.02111 33841 ft 376 kts 268°
2026-04-20 01:49 36.66052 51.95580 33857 ft 381 kts 268°
2026-04-20 01:49 36.66093 51.88940 33843 ft 384 kts 268°
2026-04-20 01:50 36.66133 51.82260 33831 ft 387 kts 268°
2026-04-20 01:50 36.66172 51.75556 33822 ft 388 kts 267°
2026-04-20 01:51 36.66208 51.68822 33807 ft 389 kts 267°
2026-04-20 01:51 36.66240 51.62087 33791 ft 389 kts 267°
2026-04-20 01:52 36.66269 51.55339 33774 ft 390 kts 267°
2026-04-20 01:52 36.66294 51.48603 33777 ft 390 kts 268°
2026-04-20 01:53 36.67244 51.41893 33788 ft 397 kts 280°
2026-04-20 01:53 36.68789 51.35275 33782 ft 398 kts 280°
2026-04-20 01:54 36.70308 51.28674 33799 ft 398 kts 280°
2026-04-20 01:54 36.71816 51.22027 33825 ft 399 kts 280°
2026-04-20 01:55 36.73317 51.15365 33840 ft 399 kts 280°
2026-04-20 01:55 36.74810 51.08704 33867 ft 398 kts 279°
2026-04-20 01:56 36.76300 51.02041 33869 ft 399 kts 279°
2026-04-20 01:56 36.77785 50.95380 33865 ft 399 kts 279°
2026-04-20 01:57 36.79256 50.88758 33844 ft 399 kts 279°
2026-04-20 01:57 36.80737 50.82080 33826 ft 399 kts 279°
2026-04-20 01:58 36.82213 50.75400 33808 ft 399 kts 279°
2026-04-20 01:58 36.83687 50.68710 33812 ft 399 kts 279°
2026-04-20 01:59 36.85152 50.62047 33816 ft 398 kts 279°
2026-04-20 01:59 36.86613 50.55374 33817 ft 398 kts 279°
2026-04-20 02:00 36.88070 50.48699 33844 ft 398 kts 279°
2026-04-20 02:00 36.89525 50.42018 33847 ft 398 kts 279°
2026-04-20 02:01 36.90972 50.35362 33912 ft 397 kts 279°
2026-04-20 02:01 36.92403 50.28753 33930 ft 397 kts 279°
2026-04-20 02:02 36.93844 50.22074 33956 ft 398 kts 279°
2026-04-20 02:02 36.95285 50.15377 33940 ft 398 kts 279°
2026-04-20 02:03 36.96717 50.08712 33945 ft 397 kts 279°
2026-04-20 02:03 36.98147 50.02017 33965 ft 399 kts 279°
2026-04-20 02:04 36.99581 49.95296 33952 ft 401 kts 279°
2026-04-20 02:04 37.01010 49.88569 33933 ft 403 kts 279°
2026-04-20 02:05 37.02449 49.81788 33950 ft 403 kts 279°
2026-04-20 02:05 37.03884 49.75008 33931 ft 403 kts 279°
2026-04-20 02:06 37.05315 49.68218 33929 ft 404 kts 279°
2026-04-20 02:06 37.06735 49.61456 33921 ft 404 kts 278°
2026-04-20 02:07 37.08159 49.54655 33925 ft 404 kts 279°
2026-04-20 02:07 37.09584 49.47823 33921 ft 405 kts 279°
2026-04-20 02:08 37.11006 49.40990 33921 ft 406 kts 279°
2026-04-20 02:08 37.12427 49.34140 33917 ft 406 kts 279°
2026-04-20 02:09 37.13844 49.27291 33922 ft 406 kts 278°
2026-04-20 02:09 37.15258 49.20433 33909 ft 407 kts 279°
2026-04-20 02:10 37.16671 49.13556 33919 ft 407 kts 279°
2026-04-20 02:10 37.18071 49.06723 33882 ft 407 kts 278°
2026-04-20 02:11 37.19476 48.99843 33914 ft 407 kts 279°
2026-04-20 02:11 37.20880 48.92942 33893 ft 408 kts 278°
2026-04-20 02:12 37.22280 48.86044 33894 ft 409 kts 278°
2026-04-20 02:12 37.23677 48.79138 33898 ft 408 kts 278°
2026-04-20 02:13 37.25058 48.72288 33908 ft 407 kts 278°
2026-04-20 02:13 37.26445 48.65390 33899 ft 406 kts 278°
2026-04-20 02:14 37.27826 48.58491 33902 ft 407 kts 278°
2026-04-20 02:14 37.29203 48.51583 33902 ft 409 kts 278°
2026-04-20 02:15 37.30583 48.44652 33894 ft 409 kts 278°
2026-04-20 02:15 37.31951 48.37753 33907 ft 409 kts 278°
2026-04-20 02:16 37.33325 48.30806 33913 ft 409 kts 278°
2026-04-20 02:16 37.34695 48.23849 33921 ft 411 kts 278°
2026-04-20 02:17 37.36066 48.16865 33902 ft 411 kts 278°
2026-04-20 02:17 37.37431 48.09891 33897 ft 410 kts 278°
2026-04-20 02:18 37.38782 48.02963 33902 ft 411 kts 278°
2026-04-20 02:18 37.40140 47.95974 33910 ft 412 kts 278°
2026-04-20 02:19 37.41496 47.88980 33915 ft 411 kts 278°
2026-04-20 02:19 37.42844 47.81998 33914 ft 411 kts 278°
2026-04-20 02:20 37.44194 47.74978 33922 ft 412 kts 278°
2026-04-20 02:20 37.45533 47.67991 33925 ft 413 kts 278°
2026-04-20 02:21 37.47549 47.57432 33916 ft 413 kts 278°
2026-04-20 02:22 37.48888 47.50392 33922 ft 413 kts 278°
2026-04-20 02:22 37.50221 47.43344 33912 ft 414 kts 278°
2026-04-20 02:23 37.51554 47.36286 33922 ft 414 kts 278°
2026-04-20 02:23 37.52885 47.29215 33914 ft 415 kts 278°
2026-04-20 02:24 37.54202 47.22187 33919 ft 415 kts 278°
2026-04-20 02:24 37.55527 47.15094 33917 ft 416 kts 278°
2026-04-20 02:25 37.56848 47.07993 33914 ft 417 kts 278°
2026-04-20 02:25 37.58171 47.00858 33916 ft 418 kts 278°
2026-04-20 02:26 37.59492 46.93709 33912 ft 419 kts 278°
2026-04-20 02:26 37.60811 46.86542 33908 ft 420 kts 278°
2026-04-20 02:27 37.62129 46.79356 33918 ft 420 kts 278°
2026-04-20 02:27 37.63436 46.72208 33905 ft 420 kts 278°
2026-04-20 02:28 37.64745 46.65020 33912 ft 420 kts 278°
2026-04-20 02:28 37.66048 46.57842 33928 ft 420 kts 278°
2026-04-20 02:29 37.67351 46.50631 33917 ft 421 kts 278°
2026-04-20 02:29 37.68652 46.43407 33908 ft 421 kts 277°
2026-04-20 02:30 37.69948 46.36179 33900 ft 421 kts 277°
2026-04-20 02:30 37.71230 46.29015 33899 ft 420 kts 277°
2026-04-20 02:31 37.72515 46.21799 33906 ft 421 kts 277°
2026-04-20 02:31 37.73795 46.14580 33895 ft 421 kts 277°
2026-04-20 02:32 37.75071 46.07358 33887 ft 421 kts 277°
2026-04-20 02:32 37.76345 46.00124 33880 ft 421 kts 277°
2026-04-20 02:33 37.77613 45.92893 33873 ft 421 kts 277°
2026-04-20 02:33 37.78877 45.85661 33872 ft 421 kts 277°
2026-04-20 02:34 37.80124 45.78491 33873 ft 421 kts 277°
2026-04-20 02:34 37.81379 45.71252 33874 ft 421 kts 277°
2026-04-20 02:35 37.82629 45.64017 33862 ft 421 kts 277°
2026-04-20 02:35 37.83873 45.56786 33853 ft 421 kts 277°
2026-04-20 02:36 37.84906 45.50760 33856 ft 421 kts 277°
2026-04-20 02:36 37.86151 45.43470 33870 ft 421 kts 277°
2026-04-20 02:37 37.87385 45.36214 33856 ft 421 kts 277°
2026-04-20 02:37 37.88613 45.28972 33872 ft 420 kts 277°
2026-04-20 02:38 37.89827 45.21778 33875 ft 420 kts 277°
2026-04-20 02:38 37.91043 45.14545 33879 ft 420 kts 277°
2026-04-20 02:39 37.92257 45.07292 33878 ft 421 kts 277°
2026-04-20 02:39 37.93468 45.00034 33874 ft 421 kts 277°
2026-04-20 02:40 37.94676 44.92764 33876 ft 422 kts 277°
2026-04-20 02:40 37.95883 44.85463 33870 ft 424 kts 277°
2026-04-20 02:41 37.97082 44.78184 33873 ft 425 kts 277°
2026-04-20 02:41 37.98288 44.70837 33882 ft 426 kts 277°
2026-04-20 02:42 37.99493 44.63465 33886 ft 427 kts 277°
2026-04-20 02:42 38.00697 44.56071 33883 ft 429 kts 277°
2026-04-20 02:43 38.02009 44.48663 33883 ft 435 kts 284°
2026-04-20 02:43 38.04092 44.41490 33913 ft 436 kts 285°
2026-04-20 02:44 38.06234 44.34289 33914 ft 436 kts 285°
2026-04-20 02:44 38.08365 44.27064 33916 ft 437 kts 285°
2026-04-20 02:45 38.10480 44.19830 33917 ft 438 kts 285°
2026-04-20 02:45 38.12592 44.12571 33918 ft 438 kts 285°
2026-04-20 02:46 38.14701 44.05301 33929 ft 439 kts 285°
2026-04-20 02:46 38.16810 43.98013 33924 ft 440 kts 285°
2026-04-20 02:47 38.18903 43.90761 33919 ft 440 kts 285°
2026-04-20 02:47 38.21007 43.83453 33913 ft 440 kts 285°
2026-04-20 02:48 38.23104 43.76147 33906 ft 440 kts 285°
2026-04-20 02:48 38.25198 43.68835 33922 ft 439 kts 285°
2026-04-20 02:49 38.27282 43.61531 33920 ft 439 kts 285°
2026-04-20 02:49 38.29354 43.54256 33915 ft 439 kts 285°
2026-04-20 02:50 38.31430 43.46942 33909 ft 440 kts 285°
2026-04-20 02:50 38.33507 43.39606 33918 ft 441 kts 285°
2026-04-20 02:51 38.35584 43.32247 33916 ft 442 kts 285°
2026-04-20 02:51 38.37667 43.24851 33920 ft 443 kts 285°
2026-04-20 02:52 38.39745 43.17448 33911 ft 444 kts 285°
2026-04-20 02:52 38.41824 43.10023 33912 ft 445 kts 285°
2026-04-20 02:53 38.43899 43.02589 33907 ft 445 kts 285°
2026-04-20 02:53 38.45971 42.95148 33899 ft 446 kts 285°
2026-04-20 02:54 38.48042 42.87688 33893 ft 446 kts 285°
2026-04-20 02:54 38.50096 42.80262 33894 ft 446 kts 284°
2026-04-20 02:54 38.50804 42.76441 33885 ft 439 kts 272°
2026-04-20 02:55 38.51085 42.72565 33901 ft 438 kts 271°
2026-04-20 02:55 38.51552 42.64799 33902 ft 439 kts 271°
2026-04-20 02:56 38.52037 42.57023 33897 ft 439 kts 271°
2026-04-20 02:56 38.52557 42.49249 33896 ft 439 kts 271°
2026-04-20 02:57 38.53086 42.41475 33902 ft 439 kts 271°
2026-04-20 02:57 38.53608 42.33757 33900 ft 439 kts 271°
2026-04-20 02:58 38.54129 42.25979 33906 ft 439 kts 271°
2026-04-20 02:58 38.54643 42.18206 33906 ft 439 kts 271°
2026-04-20 02:59 38.55152 42.10421 33893 ft 439 kts 271°
2026-04-20 02:59 38.55656 42.02644 33885 ft 439 kts 270°
2026-04-20 03:00 38.56155 41.94875 33890 ft 439 kts 270°
2026-04-20 03:00 38.56648 41.87094 33886 ft 439 kts 270°
2026-04-20 03:01 38.57136 41.79294 33884 ft 441 kts 270°
2026-04-20 03:01 38.57618 41.71534 33881 ft 442 kts 270°
2026-04-20 03:02 38.58100 41.63694 33891 ft 443 kts 270°
2026-04-20 03:02 38.58578 41.55830 33890 ft 444 kts 270°
2026-04-20 03:03 38.59050 41.47943 33885 ft 445 kts 270°
2026-04-20 03:03 38.59520 41.40062 33889 ft 444 kts 270°
2026-04-20 03:04 38.60018 41.32174 33886 ft 446 kts 270°
2026-04-20 03:04 38.60529 41.24277 33863 ft 445 kts 270°
2026-04-20 03:05 38.61027 41.16420 33872 ft 446 kts 270°
2026-04-20 03:05 38.61519 41.08505 33859 ft 446 kts 270°
2026-04-20 03:06 38.62005 41.00613 33861 ft 444 kts 270°
2026-04-20 03:06 38.62486 40.92713 33878 ft 446 kts 270°
2026-04-20 03:07 38.62960 40.84866 33866 ft 444 kts 269°
2026-04-20 03:07 38.63409 40.76984 33869 ft 444 kts 269°
2026-04-20 03:08 38.63817 40.69097 33869 ft 444 kts 269°
2026-04-20 03:08 38.64222 40.61199 33870 ft 444 kts 269°
2026-04-20 03:09 38.64624 40.53364 33862 ft 443 kts 269°
2026-04-20 03:09 38.65025 40.45485 33865 ft 443 kts 269°
2026-04-20 03:10 38.65419 40.37622 33865 ft 442 kts 269°
2026-04-20 03:10 38.65808 40.29755 33857 ft 443 kts 269°
2026-04-20 03:11 38.66191 40.21890 33851 ft 443 kts 269°
2026-04-20 03:11 38.66577 40.14013 33840 ft 444 kts 269°
2026-04-20 03:12 38.66960 40.06182 33847 ft 444 kts 269°
2026-04-20 03:12 38.67339 39.98293 33843 ft 445 kts 269°
2026-04-20 03:13 38.67714 39.90386 33841 ft 445 kts 269°
2026-04-20 03:13 38.68083 39.82479 33849 ft 445 kts 269°
2026-04-20 03:14 38.68448 39.74562 33847 ft 446 kts 269°
2026-04-20 03:14 38.68807 39.66630 33849 ft 446 kts 269°
2026-04-20 03:15 38.69163 39.58679 33853 ft 447 kts 269°
2026-04-20 03:15 38.69513 39.50789 33854 ft 446 kts 269°
2026-04-20 03:16 38.69879 39.42851 33858 ft 447 kts 269°
2026-04-20 03:16 38.70243 39.34905 33852 ft 447 kts 269°
2026-04-20 03:17 38.70599 39.26958 33867 ft 447 kts 269°
2026-04-20 03:17 38.71127 39.19023 33856 ft 450 kts 275°
2026-04-20 03:18 38.72373 39.11130 33868 ft 452 kts 278°
2026-04-20 03:18 38.73654 39.03290 33851 ft 452 kts 277°
2026-04-20 03:19 38.74839 38.95389 33858 ft 451 kts 277°
2026-04-20 03:19 38.76006 38.87471 33858 ft 452 kts 277°
2026-04-20 03:20 38.77201 38.79544 33853 ft 453 kts 277°
2026-04-20 03:20 38.78389 38.71672 33861 ft 453 kts 277°
2026-04-20 03:21 38.79579 38.63738 33863 ft 453 kts 277°
2026-04-20 03:21 38.80765 38.55775 33855 ft 454 kts 277°
2026-04-20 03:22 38.81944 38.47819 33863 ft 454 kts 277°
2026-04-20 03:22 38.83116 38.39862 33861 ft 454 kts 277°
2026-04-20 03:23 38.84282 38.31909 33879 ft 454 kts 276°
2026-04-20 03:23 38.85444 38.23943 33886 ft 454 kts 276°
2026-04-20 03:24 38.86594 38.16027 33890 ft 454 kts 276°
2026-04-20 03:24 38.87746 38.08054 33914 ft 454 kts 276°
2026-04-20 03:25 38.88893 38.00074 33926 ft 454 kts 276°
2026-04-20 03:25 38.89849 37.93392 33918 ft 454 kts 276°
2026-04-20 03:26 38.90979 37.85460 33925 ft 454 kts 276°
2026-04-20 03:26 38.92110 37.77471 33928 ft 454 kts 276°
2026-04-20 03:27 38.93237 37.69476 33953 ft 454 kts 276°
2026-04-20 03:27 38.94359 37.61476 33953 ft 455 kts 276°
2026-04-20 03:28 38.95476 37.53466 33963 ft 456 kts 276°
2026-04-20 03:28 38.97147 37.41414 33958 ft 457 kts 276°
2026-04-20 03:29 38.98254 37.33376 33971 ft 457 kts 276°
2026-04-20 03:29 38.99357 37.25322 33979 ft 457 kts 277°
2026-04-20 03:30 39.00448 37.17308 33983 ft 458 kts 277°
2026-04-20 03:30 39.01542 37.09234 33988 ft 458 kts 277°
2026-04-20 03:31 39.02630 37.01161 33989 ft 458 kts 277°
2026-04-20 03:31 39.03714 36.93071 33989 ft 459 kts 277°
2026-04-20 03:32 39.04793 36.84980 33990 ft 459 kts 277°
2026-04-20 03:32 39.05867 36.76878 34003 ft 459 kts 277°
2026-04-20 03:33 39.06929 36.68823 34005 ft 460 kts 277°
2026-04-20 03:33 39.07995 36.60694 34008 ft 461 kts 277°
2026-04-20 03:34 39.09056 36.52552 34002 ft 461 kts 277°
2026-04-20 03:34 39.10113 36.44396 34000 ft 462 kts 277°
2026-04-20 03:35 39.11166 36.36231 34002 ft 462 kts 277°
2026-04-20 03:35 39.12214 36.28056 33996 ft 463 kts 277°
2026-04-20 03:36 39.13250 36.19921 33988 ft 463 kts 277°
2026-04-20 03:36 39.14289 36.11723 33994 ft 463 kts 278°
2026-04-20 03:37 39.15322 36.03531 33988 ft 463 kts 278°
2026-04-20 03:37 39.16203 35.95292 33996 ft 463 kts 275°
2026-04-20 03:38 39.16937 35.87035 33989 ft 464 kts 275°
2026-04-20 03:38 39.17675 35.78823 33990 ft 464 kts 276°
2026-04-20 03:39 39.18435 35.70567 33993 ft 464 kts 276°
2026-04-20 03:39 39.19199 35.62304 33989 ft 464 kts 276°
2026-04-20 03:40 39.19957 35.54038 33992 ft 465 kts 276°
2026-04-20 03:40 39.20709 35.45755 33986 ft 465 kts 276°
2026-04-20 03:41 39.21456 35.37457 33992 ft 465 kts 276°
2026-04-20 03:41 39.22197 35.29171 33991 ft 465 kts 276°
2026-04-20 03:42 39.22933 35.20873 33992 ft 466 kts 276°
2026-04-20 03:42 39.23661 35.12624 33998 ft 466 kts 276°
2026-04-20 03:43 39.24388 35.04311 33995 ft 466 kts 276°
2026-04-20 03:43 39.25092 34.95989 33996 ft 466 kts 276°
2026-04-20 03:44 39.25809 34.87671 34000 ft 467 kts 276°
2026-04-20 03:44 39.26526 34.79349 33997 ft 467 kts 276°
2026-04-20 03:45 39.27232 34.71019 34004 ft 467 kts 276°
2026-04-20 03:45 39.27932 34.62681 34001 ft 467 kts 276°
2026-04-20 03:46 39.28621 34.54396 34000 ft 467 kts 276°
2026-04-20 03:46 39.29309 34.46048 33998 ft 467 kts 277°
2026-04-20 03:47 39.29993 34.37680 33995 ft 468 kts 277°
2026-04-20 03:47 39.30671 34.29322 33997 ft 468 kts 277°
2026-04-20 03:48 39.31339 34.21004 33991 ft 468 kts 277°
2026-04-20 03:48 39.32006 34.12631 33995 ft 469 kts 277°
2026-04-20 03:49 39.32668 34.04263 33994 ft 469 kts 277°
2026-04-20 03:49 39.33326 33.95873 33987 ft 469 kts 277°
2026-04-20 03:50 39.34018 33.87492 33984 ft 469 kts 278°
2026-04-20 03:50 39.34721 33.79115 33990 ft 469 kts 278°
2026-04-20 03:51 39.35414 33.70744 33984 ft 469 kts 278°
2026-04-20 03:51 39.36098 33.62357 33989 ft 469 kts 278°
2026-04-20 03:52 39.36772 33.54030 33990 ft 469 kts 278°
2026-04-20 03:52 39.37446 33.45649 33993 ft 468 kts 278°
2026-04-20 03:53 39.38113 33.37261 33997 ft 469 kts 278°
2026-04-20 03:53 39.38720 33.28870 34002 ft 469 kts 277°
2026-04-20 03:54 39.39266 33.20470 34001 ft 469 kts 277°
2026-04-20 03:54 39.39812 33.12072 34013 ft 469 kts 277°
2026-04-20 03:55 39.40362 33.03675 34008 ft 468 kts 278°
2026-04-20 03:55 39.40909 32.95286 34012 ft 468 kts 278°
2026-04-20 03:56 39.41449 32.86903 34015 ft 468 kts 278°
2026-04-20 03:56 39.41983 32.78524 34014 ft 467 kts 278°
2026-04-20 03:57 39.42508 32.70200 34016 ft 467 kts 278°
2026-04-20 03:57 39.43031 32.61836 34015 ft 467 kts 278°
2026-04-20 03:58 39.43531 32.53470 34014 ft 467 kts 275°
2026-04-20 03:58 39.43227 32.49269 34008 ft 475 kts 258°
2026-04-20 03:58 39.42117 32.45229 34029 ft 479 kts 251°
2026-04-20 03:59 39.39538 32.37271 34009 ft 479 kts 251°
2026-04-20 03:59 39.36844 32.29381 34015 ft 481 kts 248°
2026-04-20 04:00 39.33872 32.21617 34011 ft 482 kts 247°
2026-04-20 04:00 39.30889 32.13862 34013 ft 481 kts 247°
2026-04-20 04:01 39.27946 32.06104 34017 ft 481 kts 248°
2026-04-20 04:01 39.25037 31.98391 34013 ft 481 kts 248°
2026-04-20 04:02 39.22112 31.90645 34018 ft 480 kts 248°
2026-04-20 04:02 39.19178 31.82899 34016 ft 480 kts 249°
2026-04-20 04:03 39.16244 31.75174 34028 ft 480 kts 248°
2026-04-20 04:03 39.13305 31.67464 34043 ft 479 kts 247°
2026-04-20 04:04 39.10362 31.59762 34034 ft 479 kts 247°
2026-04-20 04:04 39.07414 31.52066 34036 ft 479 kts 247°
2026-04-20 04:05 39.04465 31.44385 34044 ft 478 kts 247°
2026-04-20 04:05 39.01517 31.36726 34047 ft 478 kts 247°
2026-04-20 04:06 38.98562 31.29068 34047 ft 477 kts 247°
2026-04-20 04:06 38.95608 31.21432 34050 ft 477 kts 247°
2026-04-20 04:07 38.92655 31.13817 34049 ft 476 kts 247°
2026-04-20 04:07 38.89721 31.06270 34060 ft 475 kts 246°
2026-04-20 04:08 38.86768 30.98693 34067 ft 474 kts 246°
2026-04-20 04:08 38.83819 30.91144 34061 ft 473 kts 246°
2026-04-20 04:09 38.80869 30.83611 34059 ft 472 kts 246°
2026-04-20 04:09 38.77921 30.76093 34067 ft 471 kts 246°
2026-04-20 04:10 38.74976 30.68602 34068 ft 470 kts 246°
2026-04-20 04:10 38.72337 30.60997 34068 ft 463 kts 261°
2026-04-20 04:11 38.72029 30.56945 34082 ft 455 kts 274°
2026-04-20 04:11 38.72114 30.52895 34081 ft 455 kts 275°
2026-04-20 04:11 38.72364 30.44799 34083 ft 455 kts 275°
2026-04-20 04:12 38.72537 30.38064 34073 ft 455 kts 274°
2026-04-20 04:12 38.72696 30.29955 34077 ft 455 kts 274°
2026-04-20 04:13 38.72836 30.21859 34077 ft 455 kts 274°
2026-04-20 04:13 38.72973 30.13753 34077 ft 454 kts 274°
2026-04-20 04:14 38.73107 30.05663 34067 ft 454 kts 274°
2026-04-20 04:14 38.73069 29.97574 34069 ft 456 kts 266°
2026-04-20 04:15 38.72081 29.89592 34077 ft 457 kts 262°
2026-04-20 04:15 38.70964 29.81564 34054 ft 457 kts 263°
2026-04-20 04:16 38.69924 29.73532 34058 ft 457 kts 263°
2026-04-20 04:16 38.68922 29.65492 34050 ft 457 kts 263°
2026-04-20 04:17 38.67918 29.57461 34047 ft 456 kts 263°
2026-04-20 04:17 38.66906 29.49442 34049 ft 456 kts 263°
2026-04-20 04:18 38.65986 29.41473 34046 ft 455 kts 265°
2026-04-20 04:18 38.65223 29.33445 34053 ft 455 kts 265°
2026-04-20 04:19 38.64447 29.25420 34055 ft 455 kts 265°
2026-04-20 04:19 38.63644 29.17397 34057 ft 455 kts 265°
2026-04-20 04:20 38.62830 29.09382 34051 ft 454 kts 265°
2026-04-20 04:20 38.62018 29.01370 34061 ft 454 kts 265°
2026-04-20 04:21 38.61204 28.93354 34062 ft 454 kts 265°
2026-04-20 04:21 38.60385 28.85332 34057 ft 454 kts 265°
2026-04-20 04:22 38.59562 28.77316 34052 ft 454 kts 265°
2026-04-20 04:22 38.58735 28.69303 34052 ft 455 kts 264°
2026-04-20 04:23 38.57899 28.61291 34048 ft 455 kts 264°
2026-04-20 04:23 38.56506 28.53449 34055 ft 458 kts 256°
2026-04-20 04:24 38.54641 28.45648 34045 ft 458 kts 256°
2026-04-20 04:24 38.52848 28.37824 34044 ft 458 kts 257°
2026-04-20 04:25 38.51125 28.30005 34036 ft 457 kts 257°
2026-04-20 04:25 38.49527 28.22207 34035 ft 455 kts 261°
2026-04-20 04:26 38.48414 28.14261 34035 ft 453 kts 263°
2026-04-20 04:26 38.47377 28.06349 33930 ft 451 kts 263°
2026-04-20 04:27 38.46289 27.98525 34020 ft 446 kts 262°
2026-04-20 04:27 38.45164 27.90712 34025 ft 448 kts 262°
2026-04-20 04:28 38.44026 27.82888 34026 ft 448 kts 262°
2026-04-20 04:28 38.42887 27.75091 34023 ft 447 kts 262°
2026-04-20 04:29 38.41745 27.67294 34029 ft 447 kts 262°
2026-04-20 04:29 38.40601 27.59511 34026 ft 447 kts 262°
2026-04-20 04:30 38.39460 27.51783 34024 ft 446 kts 262°
2026-04-20 04:30 38.38099 27.44064 34021 ft 450 kts 250°
2026-04-20 04:31 38.35267 27.36921 34033 ft 452 kts 244°
2026-04-20 04:31 38.32275 27.29874 34036 ft 452 kts 245°
2026-04-20 04:32 38.29321 27.22810 34043 ft 451 kts 245°
2026-04-20 04:32 38.26406 27.15732 34047 ft 451 kts 245°
2026-04-20 04:33 38.23506 27.08664 34049 ft 450 kts 245°
2026-04-20 04:33 38.20629 27.01664 34034 ft 446 kts 245°
2026-04-20 04:34 38.19214 26.98235 34030 ft 427 kts 245°
2026-04-20 04:34 38.17868 26.94986 34052 ft 403 kts 245°
2026-04-20 04:34 38.16588 26.91895 34059 ft 391 kts 245°
2026-04-20 04:34 38.15329 26.88847 34054 ft 387 kts 245°
2026-04-20 04:35 38.12854 26.82856 34014 ft 379 kts 245°
2026-04-20 04:35 38.10430 26.77003 34019 ft 370 kts 245°
2026-04-20 04:36 38.06872 26.68437 34023 ft 361 kts 245°
2026-04-20 04:36 38.05718 26.65665 33920 ft 361 kts 245°
2026-04-20 04:37 38.04535 26.62823 33631 ft 365 kts 245°
2026-04-20 04:37 38.03342 26.59958 33363 ft 369 kts 245°
2026-04-20 04:37 38.02135 26.57064 33103 ft 373 kts 245°
2026-04-20 04:37 38.00914 26.54141 32840 ft 376 kts 245°
2026-04-20 04:38 37.99685 26.51203 32578 ft 379 kts 245°
2026-04-20 04:38 37.98447 26.48246 32326 ft 381 kts 245°
2026-04-20 04:38 37.97197 26.45265 32065 ft 383 kts 245°
2026-04-20 04:38 37.95940 26.42271 31809 ft 385 kts 245°
2026-04-20 04:39 37.94682 26.39275 31556 ft 385 kts 245°
2026-04-20 04:39 37.93426 26.36291 31296 ft 383 kts 245°
2026-04-20 04:39 37.92191 26.33357 31050 ft 381 kts 245°
2026-04-20 04:39 37.90946 26.30403 30799 ft 379 kts 245°
2026-04-20 04:40 37.89706 26.27461 30551 ft 379 kts 245°
2026-04-20 04:40 37.88463 26.24516 30307 ft 378 kts 245°
2026-04-20 04:40 37.87226 26.21586 30056 ft 377 kts 245°
2026-04-20 04:40 37.85989 26.18659 29768 ft 376 kts 245°
2026-04-20 04:41 37.84757 26.15746 29480 ft 374 kts 245°
2026-04-20 04:41 37.83532 26.12853 29184 ft 372 kts 245°
2026-04-20 04:41 37.82313 26.09979 28913 ft 370 kts 245°
2026-04-20 04:41 37.81100 26.07118 28650 ft 368 kts 245°
2026-04-20 04:42 37.79893 26.04276 28367 ft 367 kts 245°
2026-04-20 04:42 37.78681 26.01423 27746 ft 369 kts 245°
2026-04-20 04:42 37.77472 25.98580 27102 ft 364 kts 245°
2026-04-20 04:42 37.76281 25.95786 26458 ft 358 kts 245°
2026-04-20 04:43 37.75106 25.93031 25824 ft 352 kts 245°
2026-04-20 04:43 37.73965 25.90358 25220 ft 348 kts 245°
2026-04-20 04:43 37.72820 25.87672 24622 ft 347 kts 245°
2026-04-20 04:43 37.71677 25.84995 24042 ft 345 kts 245°
2026-04-20 04:44 37.70540 25.82335 23536 ft 341 kts 245°
2026-04-20 04:44 37.69426 25.79734 23413 ft 336 kts 245°
2026-04-20 04:44 37.68309 25.77122 23243 ft 339 kts 245°
2026-04-20 04:44 37.67184 25.74490 23081 ft 343 kts 245°
2026-04-20 04:45 37.66047 25.71838 22929 ft 342 kts 245°
2026-04-20 04:45 37.64919 25.69210 22750 ft 339 kts 245°
2026-04-20 04:45 37.63795 25.66595 22590 ft 339 kts 245°
2026-04-20 04:45 37.62673 25.63986 22416 ft 338 kts 245°
2026-04-20 04:46 37.61552 25.61379 22262 ft 338 kts 245°
2026-04-20 04:46 37.60431 25.58778 22099 ft 336 kts 245°
2026-04-20 04:46 37.59329 25.56220 21941 ft 336 kts 245°
2026-04-20 04:46 37.58210 25.53636 21786 ft 335 kts 244°
2026-04-20 04:47 37.57010 25.51111 21627 ft 336 kts 242°
2026-04-20 04:47 37.55775 25.48614 21472 ft 335 kts 241°
2026-04-20 04:47 37.54539 25.46136 21312 ft 334 kts 241°
2026-04-20 04:47 37.53298 25.43657 21157 ft 333 kts 241°
2026-04-20 04:48 37.52060 25.41188 21002 ft 333 kts 241°
2026-04-20 04:48 37.50829 25.38729 20846 ft 332 kts 241°
2026-04-20 04:48 37.49598 25.36268 20696 ft 331 kts 241°
2026-04-20 04:48 37.48371 25.33816 20543 ft 330 kts 241°
2026-04-20 04:49 37.47149 25.31366 20392 ft 330 kts 241°
2026-04-20 04:49 37.45932 25.28926 20236 ft 329 kts 241°
2026-04-20 04:49 37.44717 25.26484 20089 ft 328 kts 241°
2026-04-20 04:49 37.43508 25.24050 19940 ft 328 kts 241°
2026-04-20 04:50 37.42303 25.21622 19796 ft 327 kts 241°
2026-04-20 04:50 37.41115 25.19227 19647 ft 326 kts 241°
2026-04-20 04:50 37.39915 25.16803 19477 ft 326 kts 241°
2026-04-20 04:50 37.38723 25.14392 19308 ft 321 kts 241°
2026-04-20 04:51 37.37585 25.12079 19089 ft 301 kts 244°
2026-04-20 04:51 37.36934 25.09692 18885 ft 280 kts 259°
2026-04-20 04:51 37.36417 25.07400 18683 ft 266 kts 253°
2026-04-20 04:51 37.35745 25.05271 18478 ft 257 kts 254°
2026-04-20 04:52 37.35673 25.03106 18272 ft 250 kts 289°
2026-04-20 04:52 37.36641 25.01317 18099 ft 251 kts 313°
2026-04-20 04:52 37.37574 24.99485 17874 ft 253 kts 290°
2026-04-20 04:52 37.38117 24.97381 17676 ft 253 kts 288°
2026-04-20 04:53 37.38644 24.95278 17457 ft 251 kts 288°
2026-04-20 04:53 37.39170 24.93195 17253 ft 250 kts 288°
2026-04-20 04:53 37.39702 24.91118 17039 ft 249 kts 289°
2026-04-20 04:53 37.40236 24.89048 16832 ft 248 kts 289°
2026-04-20 04:54 37.40771 24.86994 16629 ft 247 kts 289°
2026-04-20 04:54 37.41308 24.84938 16414 ft 247 kts 289°
2026-04-20 04:54 37.41844 24.82892 16203 ft 245 kts 289°
2026-04-20 04:54 37.42371 24.80885 16002 ft 245 kts 289°
2026-04-20 04:55 37.42905 24.78856 15803 ft 244 kts 289°
2026-04-20 04:55 37.43438 24.76829 15602 ft 244 kts 289°
2026-04-20 04:55 37.43970 24.74809 15400 ft 243 kts 289°
2026-04-20 04:55 37.44499 24.72797 15201 ft 242 kts 289°
2026-04-20 04:56 37.45025 24.70796 14993 ft 241 kts 289°
2026-04-20 04:56 37.45551 24.68797 14809 ft 240 kts 290°
2026-04-20 04:56 37.46074 24.66806 14600 ft 240 kts 290°
2026-04-20 04:56 37.46598 24.64812 14360 ft 239 kts 289°
2026-04-20 04:57 37.47117 24.62833 14117 ft 238 kts 290°
2026-04-20 04:57 37.47636 24.60857 13873 ft 237 kts 290°
2026-04-20 04:57 37.48151 24.58891 13671 ft 234 kts 290°
2026-04-20 04:57 37.48651 24.56980 13506 ft 231 kts 290°
2026-04-20 04:58 37.49153 24.55064 13346 ft 231 kts 290°
2026-04-20 04:58 37.49670 24.53089 13196 ft 237 kts 290°
2026-04-20 04:58 37.50180 24.51139 13041 ft 237 kts 290°
2026-04-20 04:58 37.50693 24.49173 12881 ft 236 kts 290°
2026-04-20 04:59 37.51204 24.47213 12723 ft 235 kts 290°
2026-04-20 04:59 37.51715 24.45256 12567 ft 235 kts 290°
2026-04-20 04:59 37.52224 24.43304 12411 ft 235 kts 290°
2026-04-20 04:59 37.52734 24.41345 12261 ft 235 kts 290°
2026-04-20 05:00 37.53078 24.40024 12155 ft 235 kts 290°
2026-04-20 05:00 37.53587 24.38067 12000 ft 234 kts 290°
2026-04-20 05:00 37.54094 24.36117 11845 ft 234 kts 290°
2026-04-20 05:00 37.54594 24.34192 11696 ft 234 kts 290°
2026-04-20 05:01 37.55099 24.32243 11541 ft 234 kts 290°
2026-04-20 05:01 37.55603 24.30295 11396 ft 234 kts 290°
2026-04-20 05:01 37.55987 24.28302 11249 ft 235 kts 282°
2026-04-20 05:01 37.56229 24.26267 11097 ft 235 kts 280°
2026-04-20 05:02 37.56446 24.24227 10948 ft 235 kts 279°
2026-04-20 05:02 37.56662 24.22187 10801 ft 234 kts 279°
2026-04-20 05:02 37.56880 24.20149 10658 ft 234 kts 279°
2026-04-20 05:02 37.57101 24.18112 10506 ft 234 kts 279°
2026-04-20 05:03 37.57325 24.16080 10360 ft 234 kts 279°
2026-04-20 05:03 37.57550 24.14050 10215 ft 234 kts 279°
2026-04-20 05:03 37.57777 24.12022 10073 ft 234 kts 279°
2026-04-20 05:03 37.58005 24.09993 9934 ft 233 kts 279°
2026-04-20 05:04 37.58234 24.07968 9739 ft 234 kts 279°
2026-04-20 05:04 37.58463 24.05935 9514 ft 233 kts 279°
2026-04-20 05:04 37.58688 24.03945 9287 ft 231 kts 279°
2026-04-20 05:04 37.58914 24.01941 9062 ft 230 kts 279°
2026-04-20 05:05 37.59140 23.99942 8842 ft 230 kts 279°
2026-04-20 05:05 37.59365 23.97947 8617 ft 230 kts 279°
2026-04-20 05:05 37.59590 23.95956 8405 ft 229 kts 279°
2026-04-20 05:05 37.59813 23.93973 8178 ft 228 kts 279°
2026-04-20 05:06 37.60036 23.91997 7895 ft 224 kts 279°
2026-04-20 05:06 37.60249 23.90096 7603 ft 214 kts 279°
2026-04-20 05:06 37.60453 23.88275 7336 ft 205 kts 279°
2026-04-20 05:06 37.60648 23.86537 7177 ft 198 kts 279°
2026-04-20 05:07 37.60840 23.84826 7031 ft 196 kts 279°
2026-04-20 05:07 37.61032 23.83122 6891 ft 196 kts 279°
2026-04-20 05:07 37.61223 23.81412 6744 ft 196 kts 279°
2026-04-20 05:07 37.61412 23.79728 6605 ft 196 kts 279°
2026-04-20 05:08 37.61602 23.78031 6483 ft 195 kts 279°
2026-04-20 05:08 37.61790 23.76343 6358 ft 194 kts 279°
2026-04-20 05:08 37.61983 23.74663 6229 ft 193 kts 283°
2026-04-20 05:08 37.62665 23.73205 5727 ft 204 kts 324°
2026-04-20 05:09 37.63967 23.72735 5556 ft 190 kts 355°
2026-04-20 05:09 37.65273 23.72618 5387 ft 187 kts 355°
2026-04-20 05:09 37.66574 23.72495 5214 ft 188 kts 354°
2026-04-20 05:09 37.67881 23.72277 5048 ft 190 kts 350°
2026-04-20 05:10 37.69189 23.72013 4910 ft 189 kts 350°
2026-04-20 05:10 37.70494 23.71953 4736 ft 190 kts 16°
2026-04-20 05:10 37.71637 23.72756 4653 ft 187 kts 28°
2026-04-20 05:10 37.72759 23.73568 4582 ft 185 kts 28°
2026-04-20 05:11 37.73840 23.74441 4414 ft 178 kts 32°
2026-04-20 05:11 37.74804 23.75306 4274 ft 164 kts 34°
2026-04-20 05:11 37.75691 23.76135 4216 ft 153 kts 34°
2026-04-20 05:11 37.76564 23.76960 4117 ft 160 kts 34°
2026-04-20 05:12 37.77446 23.77801 3925 ft 158 kts 35°
2026-04-20 05:12 37.78307 23.78624 3726 ft 157 kts 35°
2026-04-20 05:12 37.79176 23.79456 3520 ft 156 kts 35°
2026-04-20 05:12 37.80043 23.80285 3319 ft 156 kts 35°
2026-04-20 05:13 37.80909 23.81115 3106 ft 156 kts 35°
2026-04-20 05:13 37.81776 23.81945 2899 ft 156 kts 35°
2026-04-20 05:13 37.82642 23.82774 2695 ft 157 kts 35°
2026-04-20 05:13 37.83506 23.83601 2475 ft 154 kts 35°
2026-04-20 05:14 37.84361 23.84420 2271 ft 154 kts 35°
2026-04-20 05:14 37.85220 23.85242 2075 ft 155 kts 35°
2026-04-20 05:14 37.86083 23.86067 1861 ft 155 kts 35°
2026-04-20 05:14 37.86941 23.86888 1660 ft 156 kts 35°
2026-04-20 05:15 37.87809 23.87719 1433 ft 152 kts 36°
2026-04-20 05:15 37.88646 23.88520 1226 ft 151 kts 36°
2026-04-20 05:15 37.89479 23.89317 1013 ft 150 kts 36°
2026-04-20 05:15 37.90316 23.90117 814 ft 151 kts 36°
2026-04-20 05:16 37.91139 23.90904 620 ft 147 kts 36°
2026-04-20 05:16 37.91943 23.91673 416 ft 146 kts 36°
2026-04-20 05:16 37.92727 23.92419 269 ft 134 kts 36°
2026-04-20 05:16 37.93344 23.93020 279 ft 83 kts 37°
2026-04-20 05:17 37.93591 23.93346 279 ft 17 kts 64°
2026-04-20 05:17 37.93664 23.93575 280 ft 38 kts 84°
2026-04-20 05:17 37.93712 23.93786 283 ft 22 kts 36°
2026-04-20 05:17 37.93829 23.93903 283 ft 21 kts 39°
2026-04-20 05:18 37.93847 23.93921 283 ft 0 kts 37°
2026-04-20 05:18 37.93894 23.93963 287 ft 17 kts 33°
2026-04-20 05:18 37.94031 23.94096 286 ft 32 kts 37°
2026-04-20 05:18 37.94245 23.94300 288 ft 44 kts 36°
2026-04-20 05:19 37.94513 23.94552 293 ft 44 kts 37°
2026-04-20 05:19 37.94608 23.94758 293 ft 23 kts 124°
2026-04-20 05:19 37.94482 23.94969 294 ft 37 kts 126°
2026-04-20 05:19 37.94310 23.95154 297 ft 22 kts 197°
2026-04-20 05:20 37.94263 23.95138 295 ft 1 kts 172°